Location: Unspecified
(42.9300°N, 71.1866°W)
Time: 06:52:32
(UTC-04:00)

Envisat - Visible Passes

Search period start: 29 June 2016 00:00
Search period end: 09 July 2016 00:00
Orbit: 765 x 766 km, 98.3° (Epoch: 29 June)

Date Brightness Start Highest point End Pass type
(mag) Time Alt. Az. Time Alt. Az. Time Alt. Az.
29 Jun 3.8 21:43:36 10° S 21:48:30 49° W 21:53:26 10° NNW visible
30 Jun 3.0 21:06:44 10° SSE 21:11:47 77° ENE 21:16:53 10° N visible
30 Jun 5.5 22:49:09 10° WSW 22:51:22 13° W 22:53:37 10° WNW visible
01 Jul 4.7 22:10:00 10° SSW 22:14:19 28° W 22:18:41 10° NW visible
02 Jul 3.4 21:32:27 10° S 21:37:28 62° W 21:42:31 10° NNW visible
03 Jul 3.2 20:55:49 10° SSE 21:00:49 62° ENE 21:05:50 10° N visible
03 Jul 5.4 22:37:06 10° SW 22:40:15 16° W 22:43:24 10° NW visible
04 Jul 4.3 21:58:37 10° SSW 22:03:15 35° W 22:07:54 10° NNW visible
05 Jul 3.1 21:21:23 10° S 21:26:27 78° WSW 21:31:34 10° NNW visible
06 Jul 5.1 22:25:22 10° SW 22:29:08 21° W 22:32:53 10° NW visible
07 Jul 4.0 21:47:21 10° S 21:52:11 44° W 21:57:03 10° NNW visible
08 Jul 3.0 21:10:23 10° SSE 21:15:27 84° ENE 21:20:34 10° NNW visible
08 Jul 5.6 22:53:27 10° WSW 22:55:06 11° W 22:56:46 10° WNW visible
